| time (UTC) | temp F | wind direction | speed MPH | gust MPH | rain 1hr in | rain 24hr in | rain mn in | humidity % | barometer mb |
| 20260510141528 | 69 | 1 | 2.0 | 6.0 | 0.00 | 1.78 | 0.00 | 96 | 1016.7 |
| 20260510140009 | 68 | 28 | 2.0 | 8.0 | 0.00 | 1.79 | 0.00 | 97 | 1016.6 |
| 20260510134521 | 68 | 13 | 3.0 | 8.0 | 0.00 | 1.81 | 0.00 | 97 | 1016.4 |
| 20260510133022 | 68 | 6 | 3.0 | 6.0 | 0.00 | 1.86 | 0.00 | 97 | 1016.2 |
| 20260510131526 | 67 | 1 | 1.0 | 6.0 | 0.00 | 1.93 | 0.00 | 97 | 1016.0 |
| 20260510130028 | 67 | 44 | 1.0 | 5.0 | 0.00 | 2.22 | 0.00 | 97 | 1016.1 |
| 20260510124516 | 66 | 48 | 4.0 | 6.0 | 0.00 | 3.06 | 0.00 | 97 | 1015.7 |
| 20260510123019 | 66 | 2 | 2.0 | 6.0 | 0.00 | 3.10 | 0.00 | 97 | 1015.6 |
| 20260510121525 | 65 | 22 | 1.0 | 4.0 | 0.00 | 3.10 | 0.00 | 97 | 1015.5 |
| 20260510120025 | 65 | 48 | 2.0 | 3.0 | 0.00 | 3.10 | 0.00 | 97 | 1015.3 |
| 20260510114526 | 65 | 51 | 1.0 | 3.0 | 0.00 | 3.10 | 0.00 | 97 | 1014.9 |
| 20260510113018 | 65 | 44 | 1.0 | 4.0 | 0.00 | 3.10 | 0.00 | 97 | 1014.4 |
| 20260510111521 | 65 | 8 | 3.0 | 6.0 | 0.00 | 3.10 | 0.00 | 97 | 1013.9 |
| 20260510110033 | 65 | 58 | 2.0 | 3.0 | 0.00 | 3.10 | 0.00 | 97 | 1013.7 |
| 20260510104525 | 65 | 60 | 3.0 | 4.0 | 0.00 | 3.10 | 0.00 | 97 | 1013.6 |
| 20260510103029 | 65 | 352 | 2.0 | 4.0 | 0.00 | 3.10 | 0.00 | 97 | 1013.3 |
| 20260510101519 | 65 | 46 | 2.0 | 5.0 | 0.00 | 3.10 | 0.00 | 97 | 1013.2 |
| 20260510100005 | 65 | 34 | 3.0 | 6.0 | 0.00 | 3.10 | 0.00 | 97 | 1013.0 |
| 20260510094507 | 65 | 36 | 2.0 | 4.0 | 0.00 | 3.10 | 0.00 | 97 | 1012.9 |
| 20260510093014 | 65 | 22 | 4.0 | 8.0 | 0.00 | 3.10 | 0.00 | 97 | 1012.8 |
| 20260510091517 | 66 | 13 | 3.0 | 6.0 | 0.00 | 3.11 | 0.00 | 97 | 1012.8 |
| 20260510090038 | 66 | 4 | 1.0 | 5.0 | 0.00 | 3.26 | 0.00 | 97 | 1012.8 |
| 20260510084505 | 66 | 15 | 2.0 | 4.0 | 0.00 | 3.80 | 0.00 | 97 | 1012.8 |
| 20260510083012 | 66 | 23 | 2.0 | 3.0 | 0.00 | 4.10 | 0.00 | 97 | 1012.7 |
| 20260510081514 | 66 | 29 | 1.0 | 3.0 | 0.00 | 4.10 | 0.00 | 97 | 1012.5 |
| 20260510080017 | 66 | 36 | 2.0 | 3.0 | 0.00 | 4.10 | 0.00 | 97 | 1012.5 |
| 20260510074522 | 66 | 43 | 1.0 | 4.0 | 0.00 | 4.10 | 0.00 | 97 | 1012.5 |
| 20260510073004 | 66 | 352 | 1.0 | 5.0 | 0.00 | 4.10 | 0.00 | 97 | 1012.3 |
| 20260510071512 | 67 | 37 | 2.0 | 4.0 | 0.00 | 4.10 | 0.00 | 97 | 1012.1 |
| 20260510070016 | 67 | 20 | 1.0 | 4.0 | 0.00 | 4.10 | 0.00 | 97 | 1012.4 |
| 20260510064520 | 67 | 345 | 2.0 | 5.0 | 0.00 | 4.10 | 0.00 | 97 | 1012.6 |
| 20260510063026 | 67 | 342 | 1.0 | 3.0 | 0.00 | 4.10 | 0.00 | 97 | 1012.5 |
| 20260510061507 | 67 | 23 | 2.0 | 4.0 | 0.00 | 4.10 | 0.00 | 97 | 1012.6 |
| 20260510060012 | 67 | 42 | 2.0 | 5.0 | 0.00 | 4.10 | 0.00 | 97 | 1012.7 |
| 20260510054521 | 67 | 349 | 0.0 | 1.0 | 0.00 | 4.10 | 0.00 | 97 | 1012.5 |
| 20260510053021 | 67 | 349 | 0.0 | 2.0 | 0.00 | 4.19 | 0.00 | 97 | 1012.7 |
| 20260510051526 | 67 | 30 | 0.0 | 1.0 | 0.00 | 4.19 | 0.00 | 97 | 1012.8 |
| 20260510050010 | 67 | 30 | 1.0 | 3.0 | 0.00 | 4.19 | 0.00 | 97 | 1012.6 |
| 20260510044515 | 67 | 265 | 0.0 | 2.0 | 0.00 | 4.19 | 4.19 | 97 | 1012.5 |
| 20260510043021 | 67 | 252 | 0.0 | 1.0 | 0.00 | 4.19 | 4.19 | 97 | 1012.5 |
| 20260510041524 | 67 | 333 | 0.0 | 1.0 | 0.01 | 4.19 | 4.19 | 97 | 1012.5 |
| 20260510040028 | 68 | 331 | 0.0 | 1.0 | 0.01 | 4.19 | 4.19 | 97 | 1012.5 |
| 20260510034514 | 68 | 37 | 0.0 | 2.0 | 0.01 | 4.19 | 4.19 | 97 | 1013.1 |
| 20260510033018 | 68 | 34 | 0.0 | 1.0 | 0.01 | 4.19 | 4.19 | 97 | 1013.5 |
| 20260510031525 | 68 | 231 | 0.0 | 1.0 | 0.00 | 4.17 | 4.17 | 97 | 1013.3 |
| 20260510030035 | 68 | 230 | 0.0 | 1.0 | 0.00 | 4.19 | 4.17 | 97 | 1012.8 |
| 20260510024528 | 68 | 230 | 0.0 | 1.0 | 0.00 | 4.19 | 4.17 | 97 | 1013.0 |
| 20260510023014 | 68 | 231 | 0.0 | 1.0 | 0.01 | 4.19 | 4.17 | 97 | 1013.1 |
| 20260510021522 | 68 | 8 | 1.0 | 3.0 | 0.03 | 4.19 | 4.17 | 97 | 1013.1 |
| 20260510020027 | 68 | 257 | 1.0 | 4.0 | 0.06 | 4.19 | 4.17 | 97 | 1012.3 |
| 20260510014504 | 68 | 294 | 1.0 | 4.0 | 0.07 | 4.19 | 4.17 | 97 | 1011.8 |
| 20260510013008 | 68 | 110 | 1.0 | 3.0 | 0.06 | 4.17 | 4.17 | 97 | 1011.7 |
| 20260510011517 | 68 | 30 | 0.0 | 1.0 | 0.04 | 4.16 | 4.15 | 97 | 1012.0 |
| 20260510010022 | 68 | 289 | 0.0 | 2.0 | 0.01 | 4.13 | 4.12 | 97 | 1012.6 |
| 20260510004527 | 68 | 281 | 0.0 | 2.0 | 0.00 | 4.12 | 4.11 | 97 | 1011.7 |
| 20260510003020 | 68 | 280 | 1.0 | 2.0 | 0.01 | 4.12 | 4.11 | 97 | 1011.9 |
| 20260510001514 | 68 | 262 | 1.0 | 2.0 | 0.02 | 4.12 | 4.11 | 96 | 1011.9 |
| 20260510000017 | 68 | 245 | 0.0 | 2.0 | 0.02 | 4.12 | 4.11 | 96 | 1011.8 |
| 20260509234524 | 68 | 356 | 0.0 | 2.0 | 0.03 | 4.12 | 4.11 | 96 | 1012.1 |
| 20260509233027 | 68 | 333 | 0.0 | 1.0 | 0.03 | 4.12 | 4.10 | 96 | 1012.4 |
| 20260509231511 | 68 | 333 | 0.0 | 1.0 | 0.02 | 4.12 | 4.09 | 96 | 1012.2 |
| 20260509230018 | 68 | 348 | 0.0 | 1.0 | 0.04 | 4.14 | 4.09 | 96 | 1012.0 |
| 20260509224524 | 68 | 216 | 0.0 | 2.0 | 0.04 | 4.17 | 4.08 | 96 | 1011.2 |
| 20260509223023 | 68 | 250 | 0.0 | 1.0 | 0.03 | 4.16 | 4.07 | 96 | 1011.2 |
| 20260509221530 | 68 | 250 | 0.0 | 3.0 | 0.03 | 4.16 | 4.07 | 96 | 1011.4 |
| 20260509220014 | 68 | 186 | 0.0 | 1.0 | 0.01 | 4.15 | 4.05 | 96 | 1011.7 |
| 20260509214519 | 68 | 240 | 0.0 | 2.0 | 0.00 | 4.14 | 4.04 | 96 | 1011.6 |
| 20260509213022 | 68 | 295 | 0.0 | 2.0 | 0.00 | 4.16 | 4.04 | 96 | 1011.6 |
| 20260509211534 | 68 | 248 | 1.0 | 5.0 | 0.01 | 4.19 | 4.04 | 96 | 1010.4 |
| 20260509210030 | 68 | 143 | 1.0 | 3.0 | 0.04 | 4.21 | 4.04 | 96 | 1010.4 |
| 20260509204517 | 68 | 236 | 0.0 | 5.0 | 0.07 | 4.21 | 4.04 | 96 | 1010.6 |
| 20260509203024 | 68 | 30 | 0.0 | 2.0 | 0.13 | 4.21 | 4.04 | 97 | 1011.0 |
| 20260509201525 | 68 | 281 | 0.0 | 1.0 | 0.19 | 4.23 | 4.03 | 97 | 1012.2 |
| 20260509200027 | 67 | 260 | 0.0 | 2.0 | 0.22 | 4.27 | 4.00 | 97 | 1012.3 |
| 20260509194530 | 67 | 231 | 1.0 | 4.0 | 0.23 | 4.26 | 3.97 | 96 | 1011.9 |
| 20260509193016 | 67 | 219 | 1.0 | 3.0 | 0.24 | 4.21 | 3.91 | 97 | 1011.8 |
| 20260509191521 | 67 | 214 | 1.0 | 2.0 | 0.22 | 4.14 | 3.84 | 97 | 1012.8 |
| 20260509190024 | 67 | 250 | 1.0 | 3.0 | 0.22 | 4.08 | 3.78 | 97 | 1012.6 |
| 20260509184532 | 67 | 289 | 1.0 | 2.0 | 0.24 | 4.04 | 3.74 | 97 | 1012.5 |
| 20260509183029 | 66 | 317 | 0.0 | 4.0 | 0.21 | 3.97 | 3.67 | 97 | 1012.8 |
| 20260509181519 | 66 | 310 | 1.0 | 3.0 | 0.32 | 3.92 | 3.62 | 97 | 1011.8 |
| 20260509180023 | 65 | 269 | 1.0 | 5.0 | 0.37 | 3.86 | 3.56 | 96 | 1012.0 |
| 20260509174507 | 65 | 293 | 2.0 | 8.0 | 0.52 | 3.80 | 3.50 | 96 | 1012.4 |
| 20260509173012 | 65 | 248 | 2.0 | 6.0 | 0.52 | 3.76 | 3.46 | 96 | 1012.6 |
| 20260509171517 | 65 | 276 | 1.0 | 5.0 | 0.39 | 3.60 | 3.30 | 96 | 1013.1 |
| 20260509170020 | 65 | 244 | 1.0 | 3.0 | 0.32 | 3.49 | 3.19 | 96 | 1013.1 |
| 20260509164525 | 65 | 237 | 1.0 | 9.0 | 0.13 | 3.27 | 2.97 | 96 | 1012.5 |
| 20260509163009 | 65 | 110 | 4.0 | 9.0 | 0.14 | 3.23 | 2.93 | 96 | 1012.8 |
| 20260509161514 | 65 | 53 | 1.0 | 8.0 | 0.20 | 3.21 | 2.91 | 96 | 1012.9 |
| 20260509160020 | 65 | 23 | 3.0 | 7.0 | 0.22 | 3.17 | 2.87 | 96 | 1013.1 |
| 20260509154524 | 65 | 236 | 1.0 | 5.0 | 0.29 | 3.14 | 2.84 | 96 | 1013.7 |
| 20260509153026 | 65 | 46 | 4.0 | 9.0 | 0.32 | 3.09 | 2.79 | 96 | 1013.5 |
| 20260509151509 | 65 | 227 | 2.0 | 10.0 | 0.30 | 3.01 | 2.71 | 96 | 1013.4 |
| 20260509150017 | 65 | 110 | 2.0 | 8.0 | 0.25 | 2.95 | 2.65 | 95 | 1013.1 |
| 20260509144530 | 65 | 294 | 1.0 | 6.0 | 0.17 | 2.85 | 2.55 | 95 | 1013.2 |
| 20260509143024 | 65 | 259 | 1.0 | 10.0 | 0.14 | 2.77 | 2.47 | 95 | 1013.6 |